Location: ?
(35.3436°N, 139.3168°E)
Time: 09:57:46
(UTC+00:00)

X-37B - Pass Details

Date: 29 January 2021
Orbit: 383 x 391 km, 45.0° (Epoch: 10 February)

Event Time Altitude Azimuth Distance (km) Brightness Sun altitude
Rises 09:08:56 0° 307° (NW) 2,273 5.1 -12.8°
Reaches altitude 10° 09:11:14 10° 321° (NW) 1,418 3.8 -13.2°
Maximum altitude 09:13:57 25° 19° (NNE) 834 2.0 -13.8°
Enters shadow 09:14:38 23° 41° (NE) 884 1.9 -13.9°
